When you browse on this site, cookies collect data to enhance your experience and personalize the content and advertising you see.
Visit our Privacy Policy to learn more. By continuing to use the site, you agree to this use of cookies and data.
  • In Netherlands
  • List of Countries
  • For 7 days
  • Water Temperature
  • Satellite Maps
  • Weather Map
  • Weather Widgets
  • user-avatar
    Login

    Hourly Weather Hrazdan

    Today, 22 May, Wednesday

    Time Temperature Precipitation Wind Pressure Humidity
    00:00 +7°C° 0 mm 2 mps 614 mmHg 92%
    01:00 +8°C° 0 mm 1 mps 614 mmHg 92%
    02:00 +7°C° 0 mm 1 mps 614 mmHg 92%
    03:00 +7°C° 0 mm 1 mps 613 mmHg 91%
    04:00 +8°C° 0 mm 1 mps 614 mmHg 88%
    05:00 +9°C° 0 mm 1 mps 614 mmHg 85%
    06:00 +9°C° 0 mm 0 mps 615 mmHg 83%
    07:00 +11°C° 0 mm 1 mps 615 mmHg 77%
    08:00 +13°C° 0 mm 1 mps 615 mmHg 72%
    09:00 +15°C° 0 mm 2 mps 616 mmHg 69%
    10:00 +15°C° 0.1 mm 2 mps 616 mmHg 66%
    11:00 +16°C° 0.1 mm 2 mps 616 mmHg 64%
    12:00 +17°C° 0.1 mm 2 mps 616 mmHg 61%
    13:00 +16°C° 1 mm 2 mps 615 mmHg 65%
    14:00 +16°C° 1 mm 2 mps 615 mmHg 69%
    15:00 +15°C° 1 mm 2 mps 614 mmHg 73%
    16:00 +14°C° 1.6 mm 1 mps 614 mmHg 78%
    17:00 +14°C° 1.6 mm 1 mps 614 mmHg 82%
    18:00 +13°C° 1.6 mm 1 mps 613 mmHg 87%
    19:00 +12°C° 0.1 mm 1 mps 613 mmHg 88%
    20:00 +11°C° 0.1 mm 1 mps 613 mmHg 89%
    21:00 +10°C° 0.1 mm 1 mps 613 mmHg 89%
    22:00 +10°C° 0 mm 1 mps 613 mmHg 88%
    23:00 +10°C° 0 mm 1 mps 613 mmHg 87%

    Tomorrow, 23 May, Thursday

    Time Temperature Precipitation Wind Pressure Humidity
    00:00 +9°C° 0 mm 1 mps 613 mmHg 86%
    01:00 +9°C° 0 mm 1 mps 612 mmHg 84%
    02:00 +9°C° 0 mm 1 mps 612 mmHg 83%
    03:00 +9°C° 0 mm 1 mps 612 mmHg 81%
    04:00 +8°C° 0 mm 2 mps 612 mmHg 80%
    05:00 +9°C° 0 mm 2 mps 612 mmHg 79%
    06:00 +10°C° 0 mm 2 mps 612 mmHg 79%
    07:00 +12°C° 0 mm 2 mps 613 mmHg 72%
    08:00 +13°C° 0 mm 3 mps 613 mmHg 66%
    09:00 +16°C° 0 mm 3 mps 614 mmHg 59%
    10:00 +16°C° 0.2 mm 3 mps 614 mmHg 59%
    11:00 +17°C° 0.2 mm 4 mps 613 mmHg 59%
    12:00 +17°C° 0.2 mm 4 mps 613 mmHg 59%
    13:00 +17°C° 0.3 mm 4 mps 613 mmHg 59%
    14:00 +18°C° 0.3 mm 4 mps 613 mmHg 59%
    15:00 +18°C° 0.3 mm 4 mps 613 mmHg 58%
    16:00 +17°C° 0.8 mm 3 mps 613 mmHg 64%
    17:00 +16°C° 0.8 mm 2 mps 612 mmHg 70%
    18:00 +15°C° 0.8 mm 1 mps 612 mmHg 75%
    19:00 +14°C° 0.5 mm 1 mps 612 mmHg 78%
    20:00 +12°C° 0.5 mm 1 mps 612 mmHg 81%
    21:00 +10°C° 0.5 mm 0 mps 611 mmHg 84%
    22:00 +11°C° 0.2 mm 1 mps 612 mmHg 84%
    23:00 +11°C° 0.2 mm 1 mps 612 mmHg 84%

    Day after tomorrow, 24 May, Friday

    Time Temperature Precipitation Wind Pressure Humidity
    00:00 +11°C° 0.2 mm 1 mps 612 mmHg 84%
    01:00 +10°C° 0.1 mm 1 mps 612 mmHg 85%
    02:00 +10°C° 0.1 mm 1 mps 612 mmHg 85%
    03:00 +9°C° 0.1 mm 1 mps 612 mmHg 86%
    04:00 +10°C° 0.1 mm 1 mps 612 mmHg 86%
    05:00 +11°C° 0.1 mm 1 mps 612 mmHg 86%
    06:00 +10°C° 0.1 mm 2 mps 613 mmHg 85%
    07:00 +13°C° 0.1 mm 2 mps 613 mmHg 79%
    08:00 +14°C° 0.1 mm 3 mps 614 mmHg 72%
    09:00 +16°C° 0.1 mm 3 mps 614 mmHg 66%
    10:00 +17°C° 0.2 mm 3 mps 614 mmHg 63%
    11:00 +18°C° 0.2 mm 4 mps 615 mmHg 60%
    12:00 +19°C° 0.2 mm 4 mps 615 mmHg 57%
    13:00 +19°C° 0.6 mm 4 mps 614 mmHg 57%
    14:00 +19°C° 0.6 mm 4 mps 614 mmHg 57%
    15:00 +20°C° 0.6 mm 3 mps 614 mmHg 57%
    16:00 +18°C° 1.4 mm 3 mps 614 mmHg 63%
    17:00 +17°C° 1.4 mm 2 mps 613 mmHg 70%
    18:00 +16°C° 1.4 mm 1 mps 613 mmHg 76%
    19:00 +15°C° 0.8 mm 1 mps 613 mmHg 79%
    20:00 +14°C° 0.8 mm 1 mps 614 mmHg 81%
    21:00 +13°C° 0.8 mm 1 mps 614 mmHg 83%
    22:00 +13°C° 0.3 mm 1 mps 614 mmHg 82%
    23:00 +13°C° 0.3 mm 1 mps 615 mmHg 81%

    25 May, Saturday

    Time Temperature Precipitation Wind Pressure Humidity
    00:00 +13°C° 0.3 mm 1 mps 615 mmHg 80%
    01:00 +12°C° 0.1 mm 1 mps 614 mmHg 79%
    02:00 +12°C° 0.1 mm 1 mps 614 mmHg 78%
    03:00 +10°C° 0.1 mm 2 mps 614 mmHg 77%
    04:00 +12°C° 0 mm 2 mps 614 mmHg 76%
    05:00 +13°C° 0 mm 2 mps 615 mmHg 75%
    06:00 +13°C° 0 mm 2 mps 615 mmHg 74%
    07:00 +16°C° 0 mm 3 mps 615 mmHg 65%
    08:00 +18°C° 0 mm 3 mps 616 mmHg 57%
    09:00 +20°C° 0 mm 4 mps 617 mmHg 48%
    10:00 +21°C° 0 mm 4 mps 617 mmHg 45%
    11:00 +22°C° 0 mm 5 mps 617 mmHg 42%
    12:00 +23°C° 0 mm 5 mps 616 mmHg 39%
    13:00 +23°C° 0.1 mm 5 mps 616 mmHg 41%
    14:00 +23°C° 0.1 mm 5 mps 616 mmHg 43%
    15:00 +23°C° 0.1 mm 5 mps 615 mmHg 45%
    16:00 +22°C° 0.1 mm 4 mps 615 mmHg 49%
    17:00 +21°C° 0.1 mm 3 mps 614 mmHg 53%
    18:00 +20°C° 0.1 mm 3 mps 614 mmHg 58%
    19:00 +18°C° 0.1 mm 3 mps 614 mmHg 56%
    20:00 +16°C° 0.1 mm 3 mps 614 mmHg 54%
    21:00 +14°C° 0.1 mm 3 mps 614 mmHg 52%
    22:00 +14°C° 0 mm 2 mps 613 mmHg 57%
    23:00 +13°C° 0 mm 1 mps 613 mmHg 61%

    26 May, Sunday

    Time Temperature Precipitation Wind Pressure Humidity
    00:00 +12°C° 0 mm 1 mps 613 mmHg 65%
    01:00 +12°C° 0 mm 1 mps 612 mmHg 65%
    02:00 +12°C° 0 mm 1 mps 612 mmHg 65%
    03:00 +11°C° 0 mm 1 mps 612 mmHg 64%
    04:00 +12°C° 0 mm 1 mps 612 mmHg 62%
    05:00 +13°C° 0 mm 2 mps 612 mmHg 60%
    06:00 +14°C° 0 mm 2 mps 613 mmHg 58%
    07:00 +16°C° 0 mm 2 mps 614 mmHg 52%
    08:00 +18°C° 0 mm 3 mps 614 mmHg 46%
    09:00 +20°C° 0 mm 3 mps 615 mmHg 41%
    10:00 +21°C° 0 mm 4 mps 615 mmHg 39%
    11:00 +22°C° 0 mm 5 mps 615 mmHg 38%
    12:00 +23°C° 0 mm 5 mps 615 mmHg 36%
    13:00 +23°C° 0 mm 5 mps 615 mmHg 36%
    14:00 +23°C° 0 mm 5 mps 615 mmHg 37%
    15:00 +23°C° 0 mm 4 mps 614 mmHg 37%
    16:00 +22°C° 0.3 mm 4 mps 614 mmHg 45%
    17:00 +21°C° 0.3 mm 3 mps 614 mmHg 52%
    18:00 +20°C° 0.3 mm 2 mps 614 mmHg 59%
    19:00 +18°C° 0.4 mm 2 mps 613 mmHg 66%
    20:00 +15°C° 0.4 mm 2 mps 613 mmHg 74%
    21:00 +13°C° 0.4 mm 2 mps 613 mmHg 81%
    22:00 +12°C° 0.1 mm 2 mps 613 mmHg 85%
    23:00 +12°C° 0.1 mm 2 mps 613 mmHg 88%

    27 May, Monday

    Time Temperature Precipitation Wind Pressure Humidity
    00:00 +10°C° 0.1 mm 2 mps 613 mmHg 92%
    01:00 +10°C° 0 mm 2 mps 613 mmHg 92%
    02:00 +10°C° 0 mm 2 mps 613 mmHg 92%
    03:00 +11°C° 0 mm 1 mps 613 mmHg 92%
    04:00 +11°C° 0 mm 1 mps 613 mmHg 89%
    05:00 +12°C° 0 mm 1 mps 614 mmHg 86%
    06:00 +12°C° 0 mm 1 mps 614 mmHg 83%
    07:00 +14°C° 0.2 mm 1 mps 615 mmHg 75%
    08:00 +16°C° 0.2 mm 1 mps 615 mmHg 67%
    09:00 +19°C° 0.2 mm 1 mps 616 mmHg 58%
    10:00 +20°C° 1.5 mm 1 mps 616 mmHg 56%
    11:00 +19°C° 1.5 mm 2 mps 616 mmHg 54%
    12:00 +20°C° 1.5 mm 2 mps 616 mmHg 52%
    13:00 +20°C° 1.6 mm 2 mps 616 mmHg 53%
    14:00 +20°C° 1.6 mm 2 mps 616 mmHg 53%
    15:00 +20°C° 1.6 mm 2 mps 616 mmHg 54%
    16:00 +19°C° 1.1 mm 2 mps 616 mmHg 59%
    17:00 +18°C° 1.1 mm 2 mps 616 mmHg 64%
    18:00 +18°C° 1.1 mm 2 mps 615 mmHg 69%
    19:00 +16°C° 0.8 mm 2 mps 615 mmHg 73%
    20:00 +14°C° 0.8 mm 2 mps 615 mmHg 78%
    21:00 +13°C° 0.8 mm 2 mps 615 mmHg 82%
    22:00 +12°C° 0.1 mm 2 mps 615 mmHg 83%
    23:00 +10°C° 0.1 mm 2 mps 615 mmHg 83%
    Show more